Location: Hepcat Sky Observatory
(29.9800°N, 95.6500°W)
Time: 00:16:05
(UTC-05:00)

Cosmos 2366 rocket - Visible Passes

Search period start: 28 March 2015 00:00
Search period end: 07 April 2015 00:00
Orbit: 956 x 997 km, 82.9° (Epoch: 27 March)

Date Brightness Start Highest point End Pass type
(mag) Time Alt. Az. Time Alt. Az. Time Alt. Az.
28 Mar 5.7 06:22:42 10° SSE 06:28:24 37° E 06:34:11 10° NNE visible
29 Mar 4.4 06:47:38 10° S 06:53:57 74° E 07:00:18 10° N visible
30 Mar 6.9 05:31:17 10° ESE 05:34:40 16° E 05:38:27 10° NE visible
31 Mar 5.9 05:54:43 10° SSE 06:00:08 32° E 06:05:41 10° NNE visible
01 Apr 4.6 06:19:26 10° S 06:25:40 63° E 06:31:57 10° NNE visible
02 Apr 6.9 05:03:56 10° ESE 05:06:26 13° E 05:09:24 10° ENE visible
02 Apr 4.1 06:45:02 10° SSW 06:51:20 68° W 06:57:38 10° N visible
03 Apr 6.1 05:26:48 10° SE 05:31:53 27° E 05:37:09 10° NNE visible
04 Apr 4.8 05:51:17 10° SSE 05:57:24 54° E 06:03:33 10° NNE visible
05 Apr 7.0 04:37:15 10° E 04:38:13 11° E 04:39:43 10° ENE visible
05 Apr 4.0 06:16:41 10° S 06:23:02 79° W 06:29:22 10° N visible
06 Apr 6.2 04:58:57 10° SE 05:03:38 23° E 05:08:32 10° NE visible
